Location: Freistadt
(48.5112°N, 14.5013°E)
Time: 10:12:27
(UTC+02:00)

MOZHAYETS 4 - Pass Details

Date: 03 April 2023
Orbit: 657 x 675 km, 98.2° (Epoch: 03 June)

Event Time Altitude Azimuth Distance (km) Brightness Sun altitude
Exits shadow 02:39:08 27° 62° (ENE) 1,274 9.5 -32.6°
Drops below altitude 10° 02:42:54 10° 7° (N) 2,092 11.0 -32.3°
Sets 02:45:23 0° 356° (N) 3,012 11.8 -32.1°
